| time (UTC) | temp F | wind direction | speed MPH | gust MPH | rain 1hr in | rain 24hr in | rain mn in | humidity % | barometer mb |
| 20260904195537 | 54 | 267 | 1.0 | 4.0 | 0.00 | 0.04 | 0.00 | 85 | 1014.5 |
| 20260904195039 | 53 | 265 | 0.0 | 9.0 | 0.00 | 0.04 | 0.00 | 85 | 1014.4 |
| 20260904194555 | 53 | 271 | 3.0 | 10.0 | 0.00 | 0.04 | 0.00 | 85 | 1014.3 |
| 20260904194039 | 52 | 285 | 6.0 | 13.0 | 0.00 | 0.04 | 0.00 | 85 | 1014.3 |
| 20260904193541 | 52 | 284 | 8.0 | 15.0 | 0.00 | 0.04 | 0.00 | 85 | 1014.2 |
| 20260904193103 | 52 | 296 | 9.0 | 15.0 | 0.00 | 0.04 | 0.00 | 85 | 1014.1 |
| 20260904192536 | 51 | 313 | 10.0 | 14.0 | 0.00 | 0.04 | 0.00 | 85 | 1013.9 |
| 20260904192041 | 51 | 278 | 7.0 | 13.0 | 0.00 | 0.04 | 0.00 | 85 | 1013.8 |
| 20260904191600 | 51 | 276 | 9.0 | 13.0 | 0.00 | 0.04 | 0.00 | 85 | 1013.7 |
| 20260904191037 | 51 | 311 | 8.0 | 13.0 | 0.00 | 0.04 | 0.00 | 85 | 1013.7 |
| 20260904190540 | 51 | 292 | 7.0 | 10.0 | 0.00 | 0.04 | 0.00 | 85 | 1013.7 |
| 20260904190101 | 51 | 279 | 6.0 | 10.0 | 0.00 | 0.04 | 0.00 | 85 | 1013.8 |
| 20260904185540 | 51 | 261 | 5.0 | 10.0 | 0.00 | 0.04 | 0.00 | 85 | 1013.8 |
| 20260904185041 | 51 | 294 | 4.0 | 10.0 | 0.00 | 0.04 | 0.00 | 85 | 1013.9 |
| 20260904184554 | 51 | 269 | 4.0 | 10.0 | 0.00 | 0.04 | 0.00 | 85 | 1013.8 |
| 20260904184039 | 51 | 290 | 5.0 | 10.0 | 0.00 | 0.04 | 0.00 | 86 | 1013.8 |
| 20260904183539 | 51 | 269 | 4.0 | 9.0 | 0.00 | 0.04 | 0.00 | 86 | 1013.7 |
| 20260904183101 | 51 | 264 | 4.0 | 9.0 | 0.00 | 0.04 | 0.00 | 86 | 1013.7 |
| 20260904182538 | 51 | 267 | 4.0 | 9.0 | 0.00 | 0.04 | 0.00 | 86 | 1013.6 |
| 20260904182039 | 51 | 266 | 3.0 | 7.0 | 0.00 | 0.04 | 0.00 | 85 | 1013.5 |
| 20260904181557 | 51 | 275 | 3.0 | 10.0 | 0.00 | 0.04 | 0.00 | 85 | 1013.5 |
| 20260904181039 | 51 | 271 | 3.0 | 10.0 | 0.00 | 0.04 | 0.00 | 85 | 1013.6 |
| 20260904180539 | 51 | 290 | 5.0 | 10.0 | 0.00 | 0.04 | 0.00 | 85 | 1013.3 |
| 20260904180103 | 51 | 271 | 3.0 | 11.0 | 0.00 | 0.04 | 0.00 | 85 | 1013.2 |
| 20260904175539 | 51 | 243 | 4.0 | 12.0 | 0.00 | 0.04 | 0.00 | 85 | 1013.1 |
| 20260904175040 | 51 | 269 | 5.0 | 12.0 | 0.00 | 0.04 | 0.00 | 85 | 1013.0 |
| 20260904174557 | 51 | 277 | 4.0 | 11.0 | 0.00 | 0.04 | 0.00 | 84 | 1013.0 |
| 20260904174040 | 51 | 264 | 5.0 | 11.0 | 0.00 | 0.04 | 0.00 | 84 | 1012.9 |
| 20260904173539 | 52 | 277 | 3.0 | 9.0 | 0.00 | 0.04 | 0.00 | 84 | 1012.9 |
| 20260904173056 | 52 | 302 | 4.0 | 9.0 | 0.00 | 0.04 | 0.00 | 84 | 1012.9 |
| 20260904172540 | 52 | 311 | 4.0 | 11.0 | 0.00 | 0.04 | 0.00 | 84 | 1012.8 |
| 20260904172039 | 52 | 268 | 6.0 | 12.0 | 0.00 | 0.04 | 0.00 | 84 | 1012.8 |
| 20260904171558 | 52 | 300 | 8.0 | 12.0 | 0.00 | 0.04 | 0.00 | 84 | 1012.6 |
| 20260904171040 | 52 | 290 | 6.0 | 12.0 | 0.00 | 0.04 | 0.00 | 84 | 1012.6 |
| 20260904170538 | 52 | 253 | 4.0 | 9.0 | 0.00 | 0.04 | 0.00 | 84 | 1012.6 |
| 20260904170059 | 52 | 263 | 4.0 | 11.0 | 0.00 | 0.04 | 0.00 | 84 | 1012.6 |
| 20260904165541 | 52 | 261 | 5.0 | 11.0 | 0.00 | 0.04 | 0.00 | 84 | 1012.6 |
| 20260904165039 | 52 | 261 | 4.0 | 11.0 | 0.00 | 0.04 | 0.00 | 84 | 1012.5 |
| 20260904164556 | 52 | 278 | 6.0 | 15.0 | 0.00 | 0.04 | 0.00 | 83 | 1012.5 |
| 20260904164039 | 52 | 255 | 7.0 | 15.0 | 0.00 | 0.04 | 0.00 | 83 | 1012.4 |
| 20260904163539 | 52 | 267 | 4.0 | 12.0 | 0.00 | 0.04 | 0.00 | 83 | 1012.3 |
| 20260904163052 | 52 | 302 | 5.0 | 18.0 | 0.00 | 0.04 | 0.00 | 82 | 1012.1 |
| 20260904162539 | 52 | 261 | 7.0 | 18.0 | 0.00 | 0.04 | 0.00 | 82 | 1012.1 |
| 20260904162042 | 52 | 237 | 6.0 | 14.0 | 0.00 | 0.04 | 0.00 | 82 | 1012.0 |
| 20260904161610 | 52 | 239 | 6.0 | 12.0 | 0.00 | 0.04 | 0.00 | 82 | 1011.9 |
| 20260904161039 | 52 | 248 | 4.0 | 14.0 | 0.00 | 0.04 | 0.00 | 82 | 1011.9 |
| 20260904160539 | 53 | 240 | 5.0 | 14.0 | 0.00 | 0.04 | 0.00 | 82 | 1011.8 |
| 20260904155539 | 53 | 261 | 8.0 | 16.0 | 0.00 | 0.04 | 0.00 | 81 | 1011.6 |
| 20260904155036 | 53 | 237 | 7.0 | 18.0 | 0.00 | 0.04 | 0.00 | 81 | 1011.5 |
| 20260904154555 | 53 | 294 | 8.0 | 18.0 | 0.00 | 0.04 | 0.00 | 81 | 1011.5 |
| 20260904154039 | 53 | 277 | 10.0 | 21.0 | 0.00 | 0.04 | 0.00 | 81 | 1011.4 |
| 20260904153539 | 53 | 244 | 7.0 | 21.0 | 0.00 | 0.04 | 0.00 | 81 | 1011.2 |
| 20260904153101 | 53 | 246 | 8.0 | 18.0 | 0.00 | 0.04 | 0.00 | 82 | 1011.3 |
| 20260904152538 | 53 | 263 | 7.0 | 14.0 | 0.00 | 0.04 | 0.00 | 83 | 1011.2 |
| 20260904152038 | 53 | 286 | 6.0 | 14.0 | 0.00 | 0.04 | 0.00 | 82 | 1011.2 |
| 20260904151601 | 53 | 320 | 7.0 | 14.0 | 0.00 | 0.04 | 0.00 | 82 | 1011.3 |
| 20260904151039 | 53 | 244 | 7.0 | 17.0 | 0.00 | 0.04 | 0.00 | 81 | 1011.4 |
| 20260904150539 | 53 | 280 | 9.0 | 17.0 | 0.00 | 0.04 | 0.00 | 81 | 1011.3 |
| 20260904150104 | 53 | 278 | 8.0 | 17.0 | 0.00 | 0.04 | 0.00 | 81 | 1011.4 |
| 20260904145539 | 53 | 286 | 7.0 | 17.0 | 0.00 | 0.04 | 0.00 | 81 | 1011.3 |
| 20260904145039 | 53 | 270 | 10.0 | 21.0 | 0.00 | 0.04 | 0.00 | 81 | 1011.1 |
| 20260904144613 | 53 | 283 | 9.0 | 21.0 | 0.00 | 0.04 | 0.00 | 80 | 1011.0 |
| 20260904144040 | 53 | 286 | 10.0 | 21.0 | 0.00 | 0.04 | 0.00 | 80 | 1011.4 |
| 20260904143539 | 53 | 301 | 9.0 | 16.0 | 0.00 | 0.04 | 0.00 | 80 | 1011.3 |
| 20260904143057 | 53 | 249 | 9.0 | 20.0 | 0.00 | 0.04 | 0.00 | 79 | 1011.3 |
| 20260904142539 | 53 | 246 | 10.0 | 20.0 | 0.00 | 0.04 | 0.00 | 79 | 1011.1 |
| 20260904142040 | 53 | 243 | 9.0 | 19.0 | 0.00 | 0.04 | 0.00 | 79 | 1011.1 |
| 20260904141606 | 53 | 242 | 9.0 | 19.0 | 0.00 | 0.04 | 0.00 | 80 | 1011.1 |
| 20260904141039 | 53 | 253 | 9.0 | 18.0 | 0.00 | 0.04 | 0.00 | 80 | 1011.0 |
| 20260904140538 | 53 | 259 | 10.0 | 18.0 | 0.00 | 0.04 | 0.00 | 81 | 1011.1 |
| 20260904140056 | 53 | 244 | 9.0 | 17.0 | 0.00 | 0.04 | 0.00 | 81 | 1011.0 |
| 20260904135539 | 53 | 265 | 7.0 | 20.0 | 0.00 | 0.04 | 0.00 | 80 | 1011.1 |
| 20260904135038 | 53 | 292 | 9.0 | 21.0 | 0.00 | 0.04 | 0.00 | 79 | 1011.2 |
| 20260904134552 | 54 | 258 | 11.0 | 21.0 | 0.00 | 0.04 | 0.00 | 78 | 1011.0 |
| 20260904134039 | 53 | 245 | 8.0 | 17.0 | 0.00 | 0.04 | 0.00 | 79 | 1011.1 |
| 20260904133541 | 54 | 257 | 10.0 | 20.0 | 0.00 | 0.04 | 0.00 | 78 | 1011.2 |
| 20260904133057 | 54 | 247 | 12.0 | 20.0 | 0.00 | 0.04 | 0.00 | 78 | 1011.1 |
| 20260904132539 | 54 | 283 | 12.0 | 16.0 | 0.00 | 0.04 | 0.00 | 78 | 1011.1 |
| 20260904132039 | 54 | 243 | 11.0 | 16.0 | 0.00 | 0.04 | 0.00 | 79 | 1011.3 |
| 20260904131606 | 53 | 257 | 9.0 | 15.0 | 0.00 | 0.04 | 0.00 | 80 | 1011.2 |
| 20260904131039 | 53 | 232 | 7.0 | 16.0 | 0.00 | 0.04 | 0.00 | 79 | 1011.1 |
| 20260904130539 | 54 | 259 | 8.0 | 19.0 | 0.00 | 0.04 | 0.00 | 78 | 1011.1 |
| 20260904130057 | 54 | 244 | 10.0 | 19.0 | 0.00 | 0.04 | 0.00 | 77 | 1011.1 |
| 20260904125539 | 53 | 259 | 7.0 | 19.0 | 0.00 | 0.04 | 0.00 | 78 | 1011.1 |
| 20260904125043 | 53 | 259 | 9.0 | 19.0 | 0.00 | 0.04 | 0.00 | 77 | 1011.1 |
| 20260904124603 | 53 | 249 | 6.0 | 17.0 | 0.00 | 0.04 | 0.00 | 78 | 1011.1 |
| 20260904124039 | 53 | 254 | 7.0 | 17.0 | 0.00 | 0.04 | 0.00 | 77 | 1011.1 |
| 20260904123538 | 53 | 259 | 7.0 | 16.0 | 0.00 | 0.04 | 0.00 | 77 | 1011.0 |
| 20260904123054 | 53 | 272 | 8.0 | 19.0 | 0.00 | 0.04 | 0.00 | 77 | 1010.9 |
| 20260904122539 | 54 | 296 | 8.0 | 19.0 | 0.00 | 0.04 | 0.00 | 77 | 1010.8 |
| 20260904122045 | 53 | 246 | 8.0 | 19.0 | 0.00 | 0.04 | 0.00 | 78 | 1010.6 |
| 20260904121559 | 54 | 247 | 8.0 | 21.0 | 0.00 | 0.04 | 0.00 | 77 | 1010.6 |
| 20260904121038 | 54 | 240 | 11.0 | 21.0 | 0.00 | 0.04 | 0.00 | 76 | 1010.6 |
| 20260904120538 | 54 | 259 | 8.0 | 20.0 | 0.00 | 0.04 | 0.00 | 76 | 1010.6 |
| 20260904120106 | 54 | 239 | 11.0 | 23.0 | 0.00 | 0.04 | 0.00 | 76 | 1010.6 |
| 20260904115538 | 54 | 277 | 9.0 | 23.0 | 0.00 | 0.04 | 0.04 | 77 | 1010.6 |
| 20260904115039 | 54 | 248 | 13.0 | 23.0 | 0.00 | 0.04 | 0.04 | 77 | 1010.4 |
| 20260904114557 | 53 | 279 | 9.0 | 16.0 | 0.00 | 0.04 | 0.04 | 79 | 1010.3 |
| 20260904114040 | 53 | 311 | 8.0 | 18.0 | 0.00 | 0.04 | 0.04 | 80 | 1010.3 |
| 20260904113541 | 53 | 250 | 8.0 | 20.0 | 0.00 | 0.04 | 0.04 | 80 | 1010.2 |
| 20260904113056 | 54 | 298 | 10.0 | 20.0 | 0.00 | 0.04 | 0.04 | 80 | 1010.2 |
| 20260904112540 | 53 | 315 | 11.0 | 20.0 | 0.00 | 0.04 | 0.04 | 80 | 1010.1 |
| 20260904112039 | 53 | 237 | 9.0 | 17.0 | 0.00 | 0.04 | 0.04 | 80 | 1009.9 |
| 20260904111600 | 53 | 284 | 10.0 | 19.0 | 0.00 | 0.04 | 0.04 | 79 | 1009.9 |
| 20260904111039 | 53 | 243 | 11.0 | 19.0 | 0.00 | 0.04 | 0.04 | 78 | 1010.0 |
| 20260904110539 | 53 | 252 | 10.0 | 19.0 | 0.00 | 0.04 | 0.04 | 77 | 1010.0 |
| 20260904110105 | 53 | 269 | 9.0 | 23.0 | 0.00 | 0.04 | 0.04 | 77 | 1009.9 |
| 20260904105539 | 54 | 257 | 11.0 | 23.0 | 0.00 | 0.04 | 0.04 | 76 | 1009.8 |
| 20260904105039 | 53 | 257 | 12.0 | 23.0 | 0.00 | 0.04 | 0.04 | 77 | 1009.9 |
| 20260904104557 | 53 | 252 | 10.0 | 17.0 | 0.00 | 0.04 | 0.04 | 79 | 1009.9 |
| 20260904104039 | 53 | 252 | 10.0 | 16.0 | 0.00 | 0.04 | 0.04 | 80 | 1009.9 |
| 20260904103541 | 53 | 254 | 9.0 | 20.0 | 0.00 | 0.04 | 0.04 | 80 | 1009.9 |
| 20260904103054 | 53 | 316 | 11.0 | 21.0 | 0.00 | 0.04 | 0.04 | 80 | 1009.9 |
| 20260904102539 | 53 | 296 | 9.0 | 21.0 | 0.00 | 0.04 | 0.04 | 80 | 1009.7 |
| 20260904102038 | 53 | 265 | 11.0 | 21.0 | 0.00 | 0.04 | 0.04 | 80 | 1009.7 |
| 20260904101600 | 53 | 249 | 11.0 | 21.0 | 0.00 | 0.04 | 0.04 | 79 | 1009.6 |
| 20260904101038 | 53 | 267 | 10.0 | 22.0 | 0.00 | 0.04 | 0.04 | 78 | 1009.3 |
| 20260904100539 | 53 | 284 | 10.0 | 22.0 | 0.00 | 0.04 | 0.04 | 77 | 1009.4 |
| 20260904100120 | 53 | 230 | 13.0 | 23.0 | 0.00 | 0.04 | 0.04 | 76 | 1009.3 |
| 20260904095541 | 53 | 248 | 11.0 | 23.0 | 0.00 | 0.04 | 0.04 | 77 | 1009.3 |
| 20260904095039 | 53 | 268 | 11.0 | 21.0 | 0.00 | 0.04 | 0.04 | 77 | 1009.3 |
| 20260904094557 | 53 | 254 | 9.0 | 22.0 | 0.00 | 0.04 | 0.04 | 78 | 1009.2 |
| 20260904094039 | 53 | 260 | 10.0 | 22.0 | 0.00 | 0.04 | 0.04 | 78 | 1009.3 |
| 20260904093539 | 53 | 266 | 10.0 | 22.0 | 0.00 | 0.04 | 0.04 | 78 | 1009.2 |
| 20260904093055 | 54 | 261 | 9.0 | 25.0 | 0.00 | 0.04 | 0.04 | 79 | 1009.0 |
| 20260904092539 | 54 | 271 | 11.0 | 25.0 | 0.00 | 0.04 | 0.04 | 79 | 1008.9 |
| 20260904092041 | 54 | 270 | 11.0 | 20.0 | 0.00 | 0.04 | 0.04 | 80 | 1008.8 |
| 20260904091553 | 54 | 256 | 11.0 | 21.0 | 0.00 | 0.04 | 0.04 | 80 | 1008.8 |
| 20260904091042 | 54 | 300 | 9.0 | 21.0 | 0.00 | 0.04 | 0.04 | 80 | 1009.0 |
| 20260904090538 | 54 | 250 | 11.0 | 22.0 | 0.00 | 0.04 | 0.04 | 81 | 1009.0 |
| 20260904090058 | 54 | 288 | 11.0 | 22.0 | 0.00 | 0.04 | 0.04 | 81 | 1009.1 |
| 20260904085538 | 54 | 293 | 10.0 | 24.0 | 0.00 | 0.04 | 0.04 | 82 | 1008.9 |
| 20260904085040 | 54 | 231 | 11.0 | 26.0 | 0.00 | 0.04 | 0.04 | 81 | 1008.5 |
| 20260904084557 | 54 | 287 | 13.0 | 26.0 | 0.00 | 0.04 | 0.04 | 81 | 1008.3 |
| 20260904084040 | 54 | 252 | 13.0 | 22.0 | 0.00 | 0.04 | 0.04 | 80 | 1008.2 |
| 20260904083539 | 54 | 260 | 13.0 | 22.0 | 0.00 | 0.04 | 0.04 | 80 | 1008.2 |
| 20260904083106 | 54 | 273 | 12.0 | 22.0 | 0.00 | 0.04 | 0.04 | 80 | 1008.4 |
| 20260904082539 | 54 | 237 | 13.0 | 22.0 | 0.00 | 0.04 | 0.04 | 80 | 1008.3 |
| 20260904082039 | 54 | 238 | 12.0 | 22.0 | 0.00 | 0.04 | 0.04 | 80 | 1008.2 |
| 20260904081600 | 54 | 264 | 12.0 | 23.0 | 0.00 | 0.04 | 0.04 | 79 | 1008.3 |
| 20260904081039 | 54 | 242 | 13.0 | 24.0 | 0.00 | 0.04 | 0.04 | 79 | 1008.3 |
| 20260904080538 | 54 | 255 | 12.0 | 25.0 | 0.00 | 0.04 | 0.04 | 79 | 1008.1 |
| 20260904080056 | 54 | 250 | 14.0 | 25.0 | 0.00 | 0.04 | 0.04 | 78 | 1008.0 |
| 20260904075539 | 54 | 259 | 15.0 | 26.0 | 0.00 | 0.04 | 0.04 | 77 | 1007.8 |
| 20260904075038 | 54 | 263 | 16.0 | 26.0 | 0.00 | 0.04 | 0.04 | 76 | 1007.7 |
| 20260904074610 | 55 | 272 | 14.0 | 26.0 | 0.00 | 0.04 | 0.04 | 78 | 1007.6 |
| 20260904074039 | 55 | 267 | 13.0 | 25.0 | 0.00 | 0.04 | 0.04 | 80 | 1007.5 |
| 20260904073540 | 55 | 263 | 14.0 | 25.0 | 0.00 | 0.04 | 0.04 | 82 | 1007.6 |
| 20260904073100 | 55 | 236 | 15.0 | 28.0 | 0.00 | 0.04 | 0.04 | 82 | 1007.5 |
| 20260904072539 | 55 | 252 | 16.0 | 28.0 | 0.00 | 0.04 | 0.04 | 82 | 1007.6 |
| 20260904072038 | 55 | 267 | 15.0 | 26.0 | 0.00 | 0.04 | 0.04 | 83 | 1007.6 |
| 20260904071625 | 55 | 243 | 15.0 | 26.0 | 0.00 | 0.04 | 0.04 | 82 | 1007.5 |
| 20260904071039 | 55 | 249 | 13.0 | 23.0 | 0.00 | 0.04 | 0.04 | 81 | 1007.4 |
| 20260904070539 | 55 | 254 | 13.0 | 28.0 | 0.00 | 0.04 | 0.04 | 80 | 1007.4 |
| 20260904070113 | 55 | 281 | 14.0 | 29.0 | 0.00 | 0.04 | 0.04 | 80 | 1007.4 |
| 20260904065539 | 56 | 241 | 16.0 | 29.0 | 0.00 | 0.04 | 0.04 | 79 | 1007.2 |
| 20260904065039 | 56 | 253 | 13.0 | 27.0 | 0.00 | 0.04 | 0.04 | 79 | 1007.0 |
| 20260904064609 | 56 | 252 | 15.0 | 27.0 | 0.00 | 0.04 | 0.04 | 79 | 1006.8 |
| 20260904064039 | 56 | 259 | 15.0 | 26.0 | 0.00 | 0.04 | 0.04 | 79 | 1006.6 |
| 20260904063539 | 56 | 298 | 15.0 | 25.0 | 0.00 | 0.04 | 0.04 | 79 | 1006.5 |
| 20260904063100 | 55 | 244 | 12.0 | 32.0 | 0.00 | 0.04 | 0.04 | 80 | 1006.6 |
| 20260904062541 | 55 | 247 | 14.0 | 32.0 | 0.00 | 0.04 | 0.04 | 79 | 1006.6 |
| 20260904062038 | 55 | 249 | 11.0 | 26.0 | 0.00 | 0.04 | 0.04 | 80 | 1006.5 |
| 20260904061558 | 55 | 262 | 15.0 | 26.0 | 0.00 | 0.04 | 0.04 | 79 | 1006.7 |
| 20260904061039 | 55 | 261 | 11.0 | 21.0 | 0.00 | 0.04 | 0.04 | 80 | 1006.7 |
| 20260904060540 | 55 | 256 | 10.0 | 24.0 | 0.00 | 0.04 | 0.04 | 80 | 1006.6 |
| 20260904060100 | 55 | 239 | 14.0 | 24.0 | 0.00 | 0.04 | 0.04 | 79 | 1006.7 |
| 20260904055539 | 55 | 225 | 13.0 | 21.0 | 0.00 | 0.04 | 0.04 | 79 | 1006.6 |
| 20260904055039 | 55 | 286 | 11.0 | 21.0 | 0.00 | 0.04 | 0.04 | 79 | 1006.6 |
| 20260904054554 | 55 | 324 | 10.0 | 23.0 | 0.00 | 0.04 | 0.04 | 79 | 1006.6 |
| 20260904054040 | 55 | 228 | 11.0 | 23.0 | 0.00 | 0.04 | 0.04 | 79 | 1006.6 |
| 20260904053539 | 55 | 268 | 11.0 | 24.0 | 0.00 | 0.04 | 0.04 | 79 | 1006.5 |
| 20260904053108 | 56 | 260 | 12.0 | 24.0 | 0.00 | 0.04 | 0.04 | 79 | 1006.2 |
| 20260904052540 | 56 | 259 | 12.0 | 26.0 | 0.00 | 0.04 | 0.04 | 79 | 1006.1 |
| 20260904052040 | 56 | 246 | 11.0 | 27.0 | 0.00 | 0.04 | 0.04 | 79 | 1006.1 |
| 20260904051559 | 56 | 307 | 11.0 | 27.0 | 0.00 | 0.04 | 0.04 | 79 | 1006.1 |
| 20260904051039 | 56 | 248 | 11.0 | 22.0 | 0.00 | 0.04 | 0.04 | 80 | 1006.4 |
| 20260904050539 | 56 | 262 | 10.0 | 20.0 | 0.00 | 0.04 | 0.04 | 80 | 1006.2 |
| 20260904050058 | 57 | 241 | 11.0 | 30.0 | 0.00 | 0.04 | 0.04 | 80 | 1005.9 |
| 20260904045539 | 57 | 263 | 9.0 | 30.0 | 0.00 | 0.04 | 0.04 | 79 | 1005.9 |
| 20260904045039 | 57 | 244 | 12.0 | 25.0 | 0.00 | 0.04 | 0.04 | 78 | 1005.7 |
| 20260904044604 | 57 | 296 | 11.0 | 25.0 | 0.00 | 0.04 | 0.04 | 78 | 1005.7 |
| 20260904044040 | 57 | 277 | 12.0 | 24.0 | 0.00 | 0.04 | 0.04 | 77 | 1005.6 |
| 20260904043539 | 58 | 246 | 12.0 | 26.0 | 0.00 | 0.04 | 0.04 | 76 | 1005.6 |
| 20260904043105 | 58 | 308 | 13.0 | 26.0 | 0.00 | 0.04 | 0.04 | 78 | 1005.7 |
| 20260904042541 | 58 | 299 | 17.0 | 27.0 | 0.00 | 0.04 | 0.04 | 76 | 1005.5 |
| 20260904042039 | 58 | 268 | 12.0 | 27.0 | 0.00 | 0.04 | 0.04 | 75 | 1005.3 |
| 20260904041606 | 58 | 344 | 13.0 | 26.0 | 0.00 | 0.04 | 0.04 | 74 | 1005.2 |
| 20260904041039 | 58 | 243 | 14.0 | 27.0 | 0.00 | 0.04 | 0.04 | 74 | 1005.4 |
| 20260904040542 | 58 | 289 | 15.0 | 27.0 | 0.00 | 0.04 | 0.04 | 74 | 1005.4 |
| 20260904040100 | 58 | 307 | 12.0 | 28.0 | 0.00 | 0.04 | 0.04 | 74 | 1005.5 |
| 20260904035541 | 59 | 248 | 13.0 | 29.0 | 0.00 | 0.04 | 0.04 | 75 | 1005.6 |
| 20260904035040 | 59 | 229 | 18.0 | 29.0 | 0.00 | 0.04 | 0.04 | 74 | 1005.6 |
| 20260904034553 | 59 | 259 | 17.0 | 27.0 | 0.00 | 0.04 | 0.04 | 74 | 1005.6 |
| 20260904034039 | 59 | 304 | 13.0 | 24.0 | 0.00 | 0.04 | 0.04 | 76 | 1005.2 |
| 20260904033538 | 59 | 250 | 12.0 | 30.0 | 0.00 | 0.04 | 0.04 | 78 | 1005.3 |
| 20260904033104 | 59 | 265 | 14.0 | 30.0 | 0.00 | 0.04 | 0.04 | 79 | 1005.1 |
| 20260904032538 | 59 | 296 | 18.0 | 28.0 | 0.00 | 0.04 | 0.04 | 76 | 1005.0 |
| 20260904032038 | 59 | 297 | 13.0 | 30.0 | 0.00 | 0.04 | 0.04 | 78 | 1005.0 |
| 20260904031606 | 59 | 254 | 15.0 | 30.0 | 0.00 | 0.04 | 0.04 | 77 | 1004.9 |
| 20260904031038 | 59 | 253 | 15.0 | 30.0 | 0.00 | 0.04 | 0.04 | 76 | 1004.9 |
| 20260904030539 | 59 | 254 | 18.0 | 31.0 | 0.00 | 0.04 | 0.04 | 77 | 1004.8 |
| 20260904030056 | 59 | 254 | 17.0 | 31.0 | 0.00 | 0.04 | 0.04 | 76 | 1004.8 |
| 20260904025539 | 59 | 240 | 15.0 | 30.0 | 0.00 | 0.04 | 0.04 | 76 | 1004.7 |
| 20260904025039 | 60 | 235 | 14.0 | 33.0 | 0.00 | 0.04 | 0.04 | 76 | 1004.6 |
| 20260904024549 | 60 | 250 | 16.0 | 33.0 | 0.00 | 0.04 | 0.04 | 75 | 1004.3 |
| 20260904024039 | 60 | 278 | 17.0 | 35.0 | 0.00 | 0.04 | 0.04 | 76 | 1004.0 |
| 20260904023538 | 60 | 302 | 16.0 | 35.0 | 0.00 | 0.04 | 0.04 | 78 | 1003.7 |
| 20260904023102 | 60 | 271 | 18.0 | 37.0 | 0.00 | 0.04 | 0.04 | 78 | 1003.2 |
| 20260904022542 | 60 | 290 | 20.0 | 37.0 | 0.00 | 0.04 | 0.04 | 78 | 1003.2 |
| 20260904022039 | 60 | 247 | 21.0 | 37.0 | 0.00 | 0.04 | 0.04 | 80 | 1003.0 |
| 20260904021557 | 60 | 248 | 20.0 | 36.0 | 0.00 | 0.04 | 0.04 | 79 | 1002.9 |
| 20260904021038 | 60 | 249 | 21.0 | 34.0 | 0.00 | 0.04 | 0.04 | 80 | 1002.8 |
| 20260904020539 | 61 | 275 | 17.0 | 33.0 | 0.00 | 0.04 | 0.04 | 81 | 1003.0 |
| 20260904020056 | 60 | 277 | 22.0 | 35.0 | 0.00 | 0.04 | 0.04 | 82 | 1003.3 |
| 20260904015539 | 61 | 248 | 20.0 | 37.0 | 0.00 | 0.04 | 0.04 | 82 | 1003.0 |
| 20260904015039 | 61 | 293 | 18.0 | 37.0 | 0.00 | 0.04 | 0.04 | 81 | 1003.3 |
| 20260904014554 | 61 | 264 | 19.0 | 37.0 | 0.00 | 0.04 | 0.04 | 81 | 1003.3 |
| 20260904014039 | 61 | 251 | 16.0 | 36.0 | 0.00 | 0.04 | 0.04 | 83 | 1003.5 |
| 20260904013539 | 61 | 312 | 17.0 | 36.0 | 0.00 | 0.04 | 0.04 | 84 | 1003.5 |
| 20260904013047 | 61 | 281 | 18.0 | 33.0 | 0.00 | 0.04 | 0.04 | 82 | 1003.5 |
| 20260904012539 | 62 | 244 | 14.0 | 29.0 | 0.00 | 0.04 | 0.04 | 83 | 1003.5 |
| 20260904012041 | 62 | 265 | 16.0 | 39.0 | 0.00 | 0.04 | 0.04 | 84 | 1003.6 |
| 20260904011559 | 62 | 280 | 19.0 | 39.0 | 0.00 | 0.04 | 0.04 | 83 | 1003.4 |
| 20260904011039 | 62 | 292 | 20.0 | 37.0 | 0.00 | 0.04 | 0.04 | 83 | 1003.5 |
| 20260904010539 | 62 | 255 | 17.0 | 39.0 | 0.00 | 0.04 | 0.04 | 83 | 1003.5 |
| 20260904010057 | 62 | 229 | 14.0 | 39.0 | 0.00 | 0.04 | 0.04 | 85 | 1003.9 |
| 20260904005541 | 62 | 273 | 13.0 | 29.0 | 0.00 | 0.04 | 0.04 | 83 | 1004.2 |
| 20260904005039 | 62 | 274 | 15.0 | 37.0 | 0.00 | 0.04 | 0.04 | 86 | 1004.3 |
| 20260904004553 | 62 | 257 | 16.0 | 38.0 | 0.00 | 0.04 | 0.04 | 85 | 1004.4 |
| 20260904004039 | 61 | 246 | 18.0 | 38.0 | 0.00 | 0.04 | 0.04 | 84 | 1004.3 |
| 20260904003540 | 61 | 260 | 15.0 | 28.0 | 0.00 | 0.04 | 0.04 | 86 | 1004.1 |
| 20260904003100 | 60 | 244 | 16.0 | 37.0 | 0.00 | 0.04 | 0.04 | 88 | 1003.8 |
| 20260904002538 | 59 | 300 | 15.0 | 37.0 | 0.00 | 0.04 | 0.04 | 88 | 1003.6 |
| 20260904002041 | 60 | 279 | 20.0 | 44.0 | 0.00 | 0.04 | 0.04 | 88 | 1003.1 |
| 20260904001559 | 59 | 261 | 25.0 | 44.0 | 0.00 | 0.04 | 0.04 | 88 | 1003.2 |
| 20260904001040 | 61 | 287 | 26.0 | 44.0 | 0.00 | 0.04 | 0.04 | 84 | 1003.5 |
| 20260904000542 | 61 | 300 | 23.0 | 40.0 | 0.00 | 0.04 | 0.04 | 83 | 1003.2 |
| 20260904000056 | 61 | 275 | 22.0 | 43.0 | 0.00 | 0.04 | 0.04 | 84 | 1003.4 |
| 20260903235543 | 61 | 257 | 23.0 | 43.0 | 0.00 | 0.04 | 0.04 | 84 | 1003.2 |
| 20260903235039 | 61 | 264 | 20.0 | 41.0 | 0.00 | 0.04 | 0.04 | 85 | 1003.2 |
| 20260903234553 | 61 | 259 | 20.0 | 40.0 | 0.00 | 0.04 | 0.04 | 86 | 1003.3 |
| 20260903234039 | 61 | 284 | 20.0 | 42.0 | 0.00 | 0.04 | 0.04 | 86 | 1003.3 |
| 20260903233539 | 61 | 288 | 17.0 | 42.0 | 0.01 | 0.04 | 0.04 | 86 | 1003.3 |
| 20260903233241 | 61 | 322 | 20.0 | 40.0 | 0.01 | 0.04 | 0.04 | 86 | 1003.1 |
| 20260903232536 | 61 | 293 | 19.0 | 40.0 | 0.01 | 0.04 | 0.04 | 88 | 1003.4 |
| 20260903232036 | 60 | 283 | 20.0 | 42.0 | 0.01 | 0.04 | 0.04 | 89 | 1003.2 |
| 20260903231607 | 60 | 296 | 17.0 | 42.0 | 0.02 | 0.04 | 0.04 | 89 | 1003.7 |
| 20260903231040 | 60 | 296 | 22.0 | 42.0 | 0.03 | 0.04 | 0.04 | 90 | 1003.7 |
| 20260903230540 | 59 | 292 | 23.0 | 38.0 | 0.03 | 0.04 | 0.04 | 92 | 1003.6 |
| 20260903225540 | 58 | 273 | 20.0 | 35.0 | 0.03 | 0.03 | 0.03 | 92 | 1004.1 |
| 20260903225042 | 58 | 267 | 14.0 | 28.0 | 0.03 | 0.03 | 0.03 | 93 | 1004.1 |
| 20260903224602 | 57 | 316 | 14.0 | 28.0 | 0.03 | 0.03 | 0.03 | 93 | 1003.8 |
| 20260903224042 | 58 | 269 | 14.0 | 28.0 | 0.03 | 0.03 | 0.03 | 93 | 1004.0 |
| 20260903223539 | 58 | 241 | 15.0 | 26.0 | 0.02 | 0.03 | 0.03 | 92 | 1004.0 |
| 20260903223059 | 58 | 273 | 16.0 | 29.0 | 0.02 | 0.03 | 0.03 | 91 | 1004.0 |
| 20260903222539 | 58 | 285 | 14.0 | 29.0 | 0.02 | 0.03 | 0.03 | 91 | 1003.9 |
| 20260903222040 | 59 | 249 | 14.0 | 25.0 | 0.02 | 0.03 | 0.03 | 90 | 1003.6 |
| 20260903221557 | 59 | 264 | 15.0 | 25.0 | 0.01 | 0.02 | 0.02 | 89 | 1003.7 |
| 20260903221039 | 59 | 276 | 13.0 | 26.0 | 0.00 | 0.01 | 0.01 | 88 | 1004.0 |
| 20260903220542 | 59 | 273 | 16.0 | 26.0 | 0.00 | 0.01 | 0.01 | 88 | 1004.0 |
| 20260903220055 | 60 | 267 | 14.0 | 26.0 | 0.00 | 0.00 | 0.00 | 87 | 1003.9 |
| 20260903215540 | 59 | 277 | 9.0 | 24.0 | 0.00 | 0.00 | 0.00 | 87 | 1004.2 |
| 20260903215039 | 60 | 260 | 10.0 | 19.0 | 0.00 | 0.00 | 0.00 | 86 | 1004.1 |
| 20260903214602 | 60 | 294 | 11.0 | 19.0 | 0.00 | 0.00 | 0.00 | 87 | 1004.4 |
| 20260903214042 | 59 | 273 | 10.0 | 18.0 | 0.00 | 0.00 | 0.00 | 87 | 1004.4 |
| 20260903213538 | 59 | 289 | 10.0 | 21.0 | 0.00 | 0.00 | 0.00 | 86 | 1004.4 |
| 20260903213049 | 59 | 257 | 11.0 | 21.0 | 0.00 | 0.00 | 0.00 | 85 | 1004.4 |
| 20260903212539 | 60 | 320 | 10.0 | 21.0 | 0.00 | 0.00 | 0.00 | 84 | 1004.4 |
| 20260903212039 | 59 | 277 | 11.0 | 19.0 | 0.00 | 0.00 | 0.00 | 84 | 1004.2 |
| 20260903211557 | 59 | 277 | 12.0 | 19.0 | 0.00 | 0.00 | 0.00 | 84 | 1004.2 |
| 20260903211042 | 59 | 261 | 10.0 | 20.0 | 0.00 | 0.00 | 0.00 | 85 | 1004.2 |
| 20260903210540 | 59 | 244 | 11.0 | 20.0 | 0.00 | 0.00 | 0.00 | 85 | 1004.1 |
| 20260903210056 | 59 | 273 | 12.0 | 20.0 | 0.00 | 0.00 | 0.00 | 84 | 1004.4 |
| 20260903205540 | 59 | 265 | 10.0 | 20.0 | 0.00 | 0.00 | 0.00 | 84 | 1004.7 |
| 20260903205044 | 58 | 267 | 8.0 | 14.0 | 0.00 | 0.00 | 0.00 | 85 | 1004.8 |
| 20260903204556 | 58 | 281 | 6.0 | 14.0 | 0.00 | 0.00 | 0.00 | 86 | 1004.9 |
| 20260903204039 | 57 | 284 | 5.0 | 14.0 | 0.00 | 0.00 | 0.00 | 86 | 1004.9 |
| 20260903203538 | 57 | 255 | 3.0 | 10.0 | 0.00 | 0.00 | 0.00 | 86 | 1005.1 |
| 20260903203100 | 57 | 269 | 4.0 | 10.0 | 0.00 | 0.00 | 0.00 | 86 | 1005.2 |
| 20260903202540 | 57 | 243 | 3.0 | 9.0 | 0.00 | 0.00 | 0.00 | 86 | 1005.5 |
| 20260903202043 | 58 | 258 | 3.0 | 12.0 | 0.00 | 0.00 | 0.00 | 86 | 1005.6 |
| 20260903201556 | 58 | 236 | 5.0 | 12.0 | 0.00 | 0.00 | 0.00 | 86 | 1005.8 |
| 20260903201039 | 58 | 263 | 6.0 | 12.0 | 0.00 | 0.00 | 0.00 | 86 | 1005.9 |
| 20260903200542 | 57 | 248 | 5.0 | 11.0 | 0.00 | 0.00 | 0.00 | 86 | 1006.2 |
| 20260903200051 | 57 | 263 | 5.0 | 11.0 | 0.00 | 0.00 | 0.00 | 87 | 1006.2 |